Location: Piotrkow Trybunalski
(51.4000°N, 19.6830°E)
Time: 06:38:16
(UTC+02:00)

STRAND 1 - Pass Details

Date: 24 February 2024
Orbit: 764 x 779 km, 98.4° (Epoch: 24 April)

Event Time Altitude Azimuth Distance (km) Brightness Sun altitude
Rises 19:56:03 0° 6° (N) 3,274 ? -26.1°
Reaches altitude 10° 19:58:50 10° 351° (N) 2,340 ? -26.5°
Maximum altitude 20:02:40 22° 303° (WNW) 1,671 ? -27.0°
Drops below altitude 10° 20:06:28 10° 255° (WSW) 2,322 ? -27.6°
Sets 20:09:14 0° 240° (WSW) 3,242 ? -28.0°
